Het weer levert geen direct gevaar op.    Er zijn geen waarschuwingen afgegeven.


Onweer radar Meer informatie blitzortung!


Regen radar Meer informatie rain snow radar


Bezoek onze andere website:

Template documentation
and downloads

And another site



Select another period ( hide this area )

Eenheden Periode Custom range Directly to
Metrisch Engels Beide
Dagelijkse Wekelijkse Maandelijkse Jaarlijkse
use both date-selectors for a custom range
previous Dag
With this date

WeatherUnderground graphs for this period ( click here )


Dagelijkse Samenvatting Woensdag 22 augustus 2018
Tijd Temp. ( °C ) Dew pt. ( °C ) Wind ( km/h ) van Windvlaag ( km/h ) Luchtdruk ( hPa ) Humid.( % ) Rainrate ( cm )
Hoog20,7 18,1 13,0 WZW ( 124/343 ) 7,1 1018,5 93 -
Gemiddeld18,8 17,2 2,9 Kalm #52/118 1,5 1017,5 90 -
Laag17,7 16,2 -   0,0 1016,9 85 -
Dagelijkse Tabular details for Woensdag 22 augustus 2018
Tijd Temp. ( °C ) Dew pt. ( °C ) Wind ( km/h ) van Windvlaag ( km/h ) Luchtdruk ( hPa ) Humid.( % ) Rainrate ( cm )
00:04 18,8 17,0   Kalm   1018,5 89 -
00:09 18,8 16,9   Kalm   1018,5 89 -
00:14 18,7 16,9   Kalm   1018,5 89 -
00:19 18,7 16,8   Kalm   1018,4 89 -
00:24 18,6 16,8   Kalm   1018,5 89 -
00:29 18,6 16,8   Kalm   1018,4 89 -
00:34 18,6 16,9   Kalm   1018,3 90 -
00:39 18,4 16,8   Kalm   1018,4 90 -
00:44 18,4 16,7   Kalm   1018,4 90 -
00:49 18,3 16,7   Kalm   1018,4 90 -
00:54 18,3 16,6   Kalm   1018,4 90 -
00:59 18,3 16,6   Kalm   1018,4 90 -
01:04 18,3 16,6   Kalm   1018,3 90 -
01:09 18,3 16,6   Kalm   1018,3 90 -
01:14 18,3 16,8   Kalm   1018,3 91 -
01:19 18,3 16,8 1,6 Westen   1018,4 91 -
01:24 18,3 16,8 1,9 Westen 0,5 1018,4 91 -
01:29 18,3 16,8 1,9 Westen   1018,4 91 -
01:34 18,3 16,8   Kalm   1018,4 91 -
01:39 18,3 16,8   Kalm   1018,4 91 -
01:44 18,3 16,8   Kalm   1018,4 91 -
01:49 18,3 16,8   Kalm   1018,4 91 -
01:54 18,3 16,8 3,7 Westen 0,3 1018,3 91 -
01:59 18,4 16,9 1,9 Westen 1,6 1018,3 91 -
02:04 18,5 17,0 1,9 Westen   1018,3 91 -
02:09 18,6 17,2   Kalm   1018,2 92 -
02:14 18,6 17,1 1,9 Westen 0,3 1018,2 91 -
02:19 18,7 17,2 3,7 Westen 1,4 1018,2 91 -
02:24 18,8 17,3 3,7 Westen 1,8 1018,2 91 -
02:29 18,8 17,3 1,6 Westen 0,5 1018,2 91 -
02:34 18,9 17,4   Kalm   1018,1 91 -
02:39 18,9 17,4   Kalm   1018,1 91 -
02:44 19,0 17,5 1,9 Westen   1018,1 91 -
02:49 19,0 17,5 1,9 Westen 0,3 1018,1 91 -
02:54 19,1 17,4 3,2 Westen 1,9 1018,1 90 -
02:59 19,1 17,4 3,7 Westen 1,6 1018,0 90 -
03:04 19,3 17,6 3,7 Westen 1,4 1018,0 90 -
03:09 19,4 17,7 3,7 Westen 0,5 1017,9 90 -
03:14 19,6 17,9 1,9 Westen 0,5 1017,9 90 -
03:19 19,6 17,9 3,2 Westen 1,9 1017,8 90 -
03:24 19,7 18,0   Kalm   1017,7 90 -
03:29 19,7 18,0 1,9 Westen 1,8 1017,6 90 -
03:34 19,7 18,0 1,9 Westen 1,3 1017,7 90 -
03:39 19,7 18,0 3,7 Westen 1,6 1017,7 90 -
03:44 19,7 18,0 3,7 Westen 1,0 1017,7 90 -
03:49 19,7 18,0 3,7 Westen 1,4 1017,6 90 -
03:54 19,6 17,9 3,7 Westen 0,8 1017,5 90 -
03:59 19,6 17,9 3,7 Westen 1,0 1017,5 90 -
04:04 19,6 17,7   Kalm   1017,5 89 -
04:09 19,5 17,6 1,9 Westen   1017,5 89 -
04:14 19,4 17,6   Kalm   1017,4 89 -
04:19 19,3 17,5   Kalm   1017,4 89 -
04:24 19,3 17,4   Kalm   1017,3 89 -
04:29 19,2 17,4   Kalm   1017,3 89 -
04:34 19,2 17,3   Kalm   1017,2 89 -
04:39 19,1 17,3   Kalm   1017,2 89 -
04:44 19,1 17,2   Kalm   1017,3 89 -
04:49 19,0 17,2   Kalm   1017,3 89 -
04:54 18,9 17,1   Kalm   1017,2 89 -
04:59 18,7 16,9   Kalm   1017,2 89 -
05:04 18,6 16,8   Kalm   1017,3 89 -
05:09 18,5 16,7   Kalm   1017,2 89 -
05:14 18,4 16,6   Kalm   1017,1 89 -
05:19 18,3 16,5   Kalm   1017,1 89 -
05:24 18,2 16,4   Kalm   1017,0 89 -
05:29 18,2 16,5   Kalm   1017,0 90 -
05:34 18,1 16,4   Kalm   1017,0 90 -
05:39 18,1 16,4   Kalm   1016,9 90 -
05:44 18,0 16,3   Kalm   1017,0 90 -
05:49 17,9 16,3   Kalm   1017,0 90 -
05:54 17,9 16,3   Kalm   1017,0 90 -
05:59 17,9 16,2 1,9 Westen 0,3 1017,0 90 -
06:04 17,8 16,2   Kalm   1017,0 90 -
06:09 17,8 16,3   Kalm   1017,0 91 -
06:14 17,8 16,3   Kalm   1017,0 91 -
06:19 17,8 16,3   Kalm   1017,0 91 -
06:24 17,8 16,3   Kalm   1017,0 91 -
06:29 17,7 16,2   Kalm   1017,0 91 -
06:34 17,7 16,2   Kalm   1016,9 91 -
06:39 17,7 16,2 1,9 Westen 0,2 1016,9 91 -
06:44 17,7 16,2 1,9 Westen   1017,0 91 -
06:49 17,7 16,2 5,6 Westen 0,8 1017,0 91 -
06:54 18,0 16,8 5,6 Westen 3,9 1017,0 93 -
06:59 18,3 17,2 5,6 WZW 2,6 1017,0 93 -
07:04 18,5 17,3 5,6 Westen 3,2 1017,0 93 -
07:09 18,6 17,4 5,6 Westen 5,0 1017,0 93 -
07:14 18,7 17,5 5,6 Westen 2,6 1017,0 93 -
07:19 18,7 17,5 7,4 WZW 4,2 1017,0 93 -
07:24 18,7 17,6 5,6 WZW 3,5 1017,0 93 -
07:29 18,7 17,6 4,8 WZW 3,9 1017,0 93 -
07:34 18,7 17,6 5,6 ZW 3,7 1017,1 93 -
07:39 18,8 17,6 4,8 ZW 2,9 1017,1 93 -
07:44 18,7 17,4 5,6 WZW 1,6 1017,0 92 -
07:49 18,7 17,4 5,6 WZW 2,4 1017,0 92 -
07:54 18,8 17,4 5,6 WZW 2,4 1017,0 92 -
07:59 18,8 17,5 3,7 WZW 0,6 1017,0 92 -
08:04 18,9 17,6 6,4 WZW 3,1 1017,0 92 -
08:09 18,9 17,6 8,0 WZW 5,6 1017,0 92 -
08:14 19,0 17,7 5,6 ZW 2,9 1017,0 92 -
08:19 19,1 17,7 8,0 WZW 6,6 1017,0 92 -
08:24 19,1 17,6 7,4 ZW 5,3 1016,9 91 -
08:29 19,3 17,8 11,3 Westen 6,9 1017,1 91 -
08:34 19,4 17,9 5,6 Westen 5,3 1017,0 91 -
08:39 19,5 17,8 5,6 WZW 4,3 1017,0 90 -
08:44 19,6 17,9 11,1 WZW 6,3 1017,1 90 -
08:49 19,6 17,7 9,3 WZW 4,2 1017,1 89 -
08:54 19,6 17,7 6,4 ZW 5,5 1017,1 89 -
08:59 19,6 17,7 13,0 ZW 6,1 1017,0 89 -
09:04 19,6 17,5 9,3 WZW 6,8 1017,0 88 -
09:09 19,6 17,5 8,0 ZW 5,0 1017,0 88 -
09:14 19,6 17,6 11,1 WNW 3,1 1016,9 88 -
09:19 19,7 17,6 8,0 ZZW 5,3 1016,9 88 -
09:24 19,9 17,8 6,4 ZZW 4,3 1016,9 88 -
09:29 20,1 17,9 7,4 WZW 5,3 1016,9 87 -
09:34 20,3 17,8 8,0 WZW 6,0 1016,9 86 -
09:39 20,4 17,8 13,0 ZW 7,1 1017,0 85 -
09:44 20,5 17,9 7,4 WZW 4,2 1016,9 85 -
09:49 20,7 18,1 7,4 ZW 6,3 1017,0 85 -
Dagelijkse Samenvatting Woensdag 22 augustus 2018
Tijd Temp. ( °C ) Dew pt. ( °C ) Wind ( km/h ) van Windvlaag ( km/h ) Luchtdruk ( hPa ) Humid.( % ) Rainrate ( cm )
Hoog20,7 18,1 13,0 WZW ( 124/343 ) 7,1 1018,5 93 -
Gemiddeld18,8 17,2 2,9 Kalm #52/118 1,5 1017,5 90 -
Laag17,7 16,2 -   0,0 1016,9 85 -
Dagelijkse Tabular details for Woensdag 22 augustus 2018
Tijd Temp. ( °C ) Dew pt. ( °C ) Wind ( km/h ) van Windvlaag ( km/h ) Luchtdruk ( hPa ) Humid.( % ) Rainrate ( cm )
00:04 18,8 17,0   Kalm   1018,5 89 -
00:09 18,8 16,9   Kalm   1018,5 89 -
00:14 18,7 16,9   Kalm   1018,5 89 -
00:19 18,7 16,8   Kalm   1018,4 89 -
00:24 18,6 16,8   Kalm   1018,5 89 -
00:29 18,6 16,8   Kalm   1018,4 89 -
00:34 18,6 16,9   Kalm   1018,3 90 -
00:39 18,4 16,8   Kalm   1018,4 90 -
00:44 18,4 16,7   Kalm   1018,4 90 -
00:49 18,3 16,7   Kalm   1018,4 90 -
00:54 18,3 16,6   Kalm   1018,4 90 -
00:59 18,3 16,6   Kalm   1018,4 90 -
01:04 18,3 16,6   Kalm   1018,3 90 -
01:09 18,3 16,6   Kalm   1018,3 90 -
01:14 18,3 16,8   Kalm   1018,3 91 -
01:19 18,3 16,8 1,6 Westen   1018,4 91 -
01:24 18,3 16,8 1,9 Westen 0,5 1018,4 91 -
01:29 18,3 16,8 1,9 Westen   1018,4 91 -
01:34 18,3 16,8   Kalm   1018,4 91 -
01:39 18,3 16,8   Kalm   1018,4 91 -
01:44 18,3 16,8   Kalm   1018,4 91 -
01:49 18,3 16,8   Kalm   1018,4 91 -
01:54 18,3 16,8 3,7 Westen 0,3 1018,3 91 -
01:59 18,4 16,9 1,9 Westen 1,6 1018,3 91 -
02:04 18,5 17,0 1,9 Westen   1018,3 91 -
02:09 18,6 17,2   Kalm   1018,2 92 -
02:14 18,6 17,1 1,9 Westen 0,3 1018,2 91 -
02:19 18,7 17,2 3,7 Westen 1,4 1018,2 91 -
02:24 18,8 17,3 3,7 Westen 1,8 1018,2 91 -
02:29 18,8 17,3 1,6 Westen 0,5 1018,2 91 -
02:34 18,9 17,4   Kalm   1018,1 91 -
02:39 18,9 17,4   Kalm   1018,1 91 -
02:44 19,0 17,5 1,9 Westen   1018,1 91 -
02:49 19,0 17,5 1,9 Westen 0,3 1018,1 91 -
02:54 19,1 17,4 3,2 Westen 1,9 1018,1 90 -
02:59 19,1 17,4 3,7 Westen 1,6 1018,0 90 -
03:04 19,3 17,6 3,7 Westen 1,4 1018,0 90 -
03:09 19,4 17,7 3,7 Westen 0,5 1017,9 90 -
03:14 19,6 17,9 1,9 Westen 0,5 1017,9 90 -
03:19 19,6 17,9 3,2 Westen 1,9 1017,8 90 -
03:24 19,7 18,0   Kalm   1017,7 90 -
03:29 19,7 18,0 1,9 Westen 1,8 1017,6 90 -
03:34 19,7 18,0 1,9 Westen 1,3 1017,7 90 -
03:39 19,7 18,0 3,7 Westen 1,6 1017,7 90 -
03:44 19,7 18,0 3,7 Westen 1,0 1017,7 90 -
03:49 19,7 18,0 3,7 Westen 1,4 1017,6 90 -
03:54 19,6 17,9 3,7 Westen 0,8 1017,5 90 -
03:59 19,6 17,9 3,7 Westen 1,0 1017,5 90 -
04:04 19,6 17,7   Kalm   1017,5 89 -
04:09 19,5 17,6 1,9 Westen   1017,5 89 -
04:14 19,4 17,6   Kalm   1017,4 89 -
04:19 19,3 17,5   Kalm   1017,4 89 -
04:24 19,3 17,4   Kalm   1017,3 89 -
04:29 19,2 17,4   Kalm   1017,3 89 -
04:34 19,2 17,3   Kalm   1017,2 89 -
04:39 19,1 17,3   Kalm   1017,2 89 -
04:44 19,1 17,2   Kalm   1017,3 89 -
04:49 19,0 17,2   Kalm   1017,3 89 -
04:54 18,9 17,1   Kalm   1017,2 89 -
04:59 18,7 16,9   Kalm   1017,2 89 -
05:04 18,6 16,8   Kalm   1017,3 89 -
05:09 18,5 16,7   Kalm   1017,2 89 -
05:14 18,4 16,6   Kalm   1017,1 89 -
05:19 18,3 16,5   Kalm   1017,1 89 -
05:24 18,2 16,4   Kalm   1017,0 89 -
05:29 18,2 16,5   Kalm   1017,0 90 -
05:34 18,1 16,4   Kalm   1017,0 90 -
05:39 18,1 16,4   Kalm   1016,9 90 -
05:44 18,0 16,3   Kalm   1017,0 90 -
05:49 17,9 16,3   Kalm   1017,0 90 -
05:54 17,9 16,3   Kalm   1017,0 90 -
05:59 17,9 16,2 1,9 Westen 0,3 1017,0 90 -
06:04 17,8 16,2   Kalm   1017,0 90 -
06:09 17,8 16,3   Kalm   1017,0 91 -
06:14 17,8 16,3   Kalm   1017,0 91 -
06:19 17,8 16,3   Kalm   1017,0 91 -
06:24 17,8 16,3   Kalm   1017,0 91 -
06:29 17,7 16,2   Kalm   1017,0 91 -
06:34 17,7 16,2   Kalm   1016,9 91 -
06:39 17,7 16,2 1,9 Westen 0,2 1016,9 91 -
06:44 17,7 16,2 1,9 Westen   1017,0 91 -
06:49 17,7 16,2 5,6 Westen 0,8 1017,0 91 -
06:54 18,0 16,8 5,6 Westen 3,9 1017,0 93 -
06:59 18,3 17,2 5,6 WZW 2,6 1017,0 93 -
07:04 18,5 17,3 5,6 Westen 3,2 1017,0 93 -
07:09 18,6 17,4 5,6 Westen 5,0 1017,0 93 -
07:14 18,7 17,5 5,6 Westen 2,6 1017,0 93 -
07:19 18,7 17,5 7,4 WZW 4,2 1017,0 93 -
07:24 18,7 17,6 5,6 WZW 3,5 1017,0 93 -
07:29 18,7 17,6 4,8 WZW 3,9 1017,0 93 -
07:34 18,7 17,6 5,6 ZW 3,7 1017,1 93 -
07:39 18,8 17,6 4,8 ZW 2,9 1017,1 93 -
07:44 18,7 17,4 5,6 WZW 1,6 1017,0 92 -
07:49 18,7 17,4 5,6 WZW 2,4 1017,0 92 -
07:54 18,8 17,4 5,6 WZW 2,4 1017,0 92 -
07:59 18,8 17,5 3,7 WZW 0,6 1017,0 92 -
08:04 18,9 17,6 6,4 WZW 3,1 1017,0 92 -
08:09 18,9 17,6 8,0 WZW 5,6 1017,0 92 -
08:14 19,0 17,7 5,6 ZW 2,9 1017,0 92 -
08:19 19,1 17,7 8,0 WZW 6,6 1017,0 92 -
08:24 19,1 17,6 7,4 ZW 5,3 1016,9 91 -
08:29 19,3 17,8 11,3 Westen 6,9 1017,1 91 -
08:34 19,4 17,9 5,6 Westen 5,3 1017,0 91 -
08:39 19,5 17,8 5,6 WZW 4,3 1017,0 90 -
08:44 19,6 17,9 11,1 WZW 6,3 1017,1 90 -
08:49 19,6 17,7 9,3 WZW 4,2 1017,1 89 -
08:54 19,6 17,7 6,4 ZW 5,5 1017,1 89 -
08:59 19,6 17,7 13,0 ZW 6,1 1017,0 89 -
09:04 19,6 17,5 9,3 WZW 6,8 1017,0 88 -
09:09 19,6 17,5 8,0 ZW 5,0 1017,0 88 -
09:14 19,6 17,6 11,1 WNW 3,1 1016,9 88 -
09:19 19,7 17,6 8,0 ZZW 5,3 1016,9 88 -
09:24 19,9 17,8 6,4 ZZW 4,3 1016,9 88 -
09:29 20,1 17,9 7,4 WZW 5,3 1016,9 87 -
09:34 20,3 17,8 8,0 WZW 6,0 1016,9 86 -
09:39 20,4 17,8 13,0 ZW 7,1 1017,0 85 -
09:44 20,5 17,9 7,4 WZW 4,2 1016,9 85 -
09:49 20,7 18,1 7,4 ZW 6,3 1017,0 85 -

Download your copy of this data-set  here

Our weather-data as stored at Weather Underground. Script ontwikkeld door Jim McMurry. Aangepast voor de template door Leuven-Template.eu

U vindt ons ook hier:

Het Weer Aktueel

European Weather Network

Weather Underground

Benelux Weer Netwerk

Citizen Weather Observer Program (CWOP)

Apparatuur in gebruik:

Weerstation
Davis VP2

Weerprogramma
Weather Display

Weercomputer
My Computer

Webleverancier
WeservIT

Davis VP2

Weather Display

My Computer

WeservIT